Torna al catalogo

OKEAN 3

AttivoScienzaPO
NORAD 21397·PAYLOAD·🇷🇺 Russia

Lanciato Jun 4, 1991 da Plesetsk Cosmodrome

Loading…

Prossimi Passaggi (prossime 24 ore)

TLE

AggiornatoSource: Space-Track

Epoca: Sep 14, 2026, 11:13 UTC

1 21397U 91039A   26257.46754466  .00002353  00000-0  16058-3 0  9994
2 21397  82.5189 153.7951 0015296  49.2728 310.9825 15.05673586893434

Traccia OKEAN 3 in tempo reale con AllMySat

Download on the App Store